Location: Artiguedieu
(43.5000°N, 0.5454°E)
Time: 10:35:48
(UTC+00:00)

Vanguard 1 Rocket - Pass Details

Date: 30 July 2021
Orbit: 650 x 4226 km, 34.3° (Epoch: 24 September)

Event Time Altitude Azimuth Distance (km) Brightness Sun altitude
Rises 14:08:48 0° 268° (W) 6,000 12.0 53.7°
Reaches altitude 10° 14:13:47 10° 262° (W) 4,377 11.6 53.0°
Maximum altitude 14:23:13 39° 199° (SSW) 1,760 10.1 51.5°
Drops below altitude 10° 14:28:42 10° 131° (SE) 2,545 9.7 50.6°
Sets 14:30:52 0° 123° (ESE) 3,277 10.1 50.3°
